Terminal Aerodrome Forecast
Issued by NWS Midland/Odessa, TX

Home | Current Version | Previous Version | Text Only | Print | Product List | Glossary On
Versions: 1 2 3 4 5 6 7 8 9 10 11 12 13 14 15 16 17 18 19 20 21 22 23
000
FTUS44 KMAF 252320
TAFMAF
TAF
KMAF 252320Z 2600/2624 17011KT P6SM SCT080 BKN200
      TEMPO 2600/2604 VRB20G35KT P6SM TSRA BKN050CB
     FM260600 15010KT P6SM SCT050 BKN150=

USA.gov is the U.S. government's official web portal to all federal, state and local government web resources and services.